Weather History for Nantucket, MA

Change the Weather History Date:

Friday, November 30, 2012

  Actual Average Record
Temperature  
Mean Temperature 40 °F -  
Max Temperature 44 °F 45 °F 59 °F (1963)
Min Temperature 35 °F 32 °F 20 °F (1958)
Degree Days  
Heating Degree Days 26    
Growing Degree Days 0 (Base 50)    
Moisture  
Dew Point 29 °F    
Average Humidity 68    
Maximum Humidity 77    
Minimum Humidity 57    
Precipitation  
Precipitation 0.00 in - - ()
Sea Level Pressure  
Sea Level Pressure 30.42 in    
Wind  
Wind Speed 14 mph (NNE)    
Max Wind Speed 21 mph    
Max Gust Speed 26 mph    
Visibility 10 miles    
Events      
Averages and records for this station are not official NWS values.
T = Trace of Precipitation, MM = Missing Value Source: NWS Daily Summary

Daily Weather History Graph

Daily Weather History Graph

Search for Another Location

Airport:

Trip Planner

Search our weather history database for the weather conditions in past years. The results will help you decide how hot, cold, wet, or windy it might be!

Date:

Astronomy

Nov. 30, 2012 Rise Set
Actual Time 6:45 AM EST 4:12 PM EST
Civil Twilight 6:15 AM EST 4:42 PM EST
Nautical Twilight 5:40 AM EST 5:17 PM EST
Astronomical Twilight 5:07 AM EST 5:50 PM EST
Moon 6:04 PM EST (11/30) 8:15 AM EST (11/30)
Length of Visible Light 10h 27m
Length of Day
9h 26m
Waning Gibbous, 96% of the Moon is Illuminated
Nov 30
Waning Gibbous
Dec 6
Last Quarter
Dec 13
New
Dec 20
First Quarter
Dec 28
Full

Hourly Weather History & Observations

Time (EST) Temp. Windchill Dew Point Humidity Pressure Visibility Wind Dir Wind Speed Gust Speed Precip Events Conditions
12:53 AM 44.1 °F 35.7 °F 34.0 °F 68% 30.25 in 10.0 mi West 20.7 mph 26.5 mph N/A   Clear
1:53 AM 44.1 °F 36.2 °F 35.1 °F 71% 30.27 in 10.0 mi West 18.4 mph 23.0 mph N/A   Clear
2:53 AM 44.1 °F 37.4 °F 32.0 °F 63% 30.27 in 10.0 mi West 13.8 mph 24.2 mph N/A   Partly Cloudy
3:53 AM 43.0 °F 37.7 °F 32.0 °F 65% 30.28 in 10.0 mi WNW 9.2 mph - N/A   Clear
4:53 AM 41.0 °F 35.2 °F 30.9 °F 67% 30.30 in 10.0 mi NW 9.2 mph - N/A   Clear
5:53 AM 39.9 °F 32.9 °F 30.9 °F 70% 30.33 in 10.0 mi NNW 11.5 mph 18.4 mph N/A   Clear
6:53 AM 37.9 °F 30.9 °F 28.9 °F 70% 30.35 in 10.0 mi NNW 10.4 mph - N/A   Clear
7:53 AM 39.9 °F 32.5 °F 33.1 °F 77% 30.38 in 10.0 mi North 12.7 mph - N/A   Clear
8:53 AM 39.0 °F 30.3 °F 30.0 °F 70% 30.40 in 10.0 mi North 16.1 mph 23.0 mph N/A   Clear
9:53 AM 41.0 °F 32.5 °F 27.0 °F 57% 30.42 in 10.0 mi North 17.3 mph - N/A   Clear
10:53 AM 43.0 °F 34.8 °F 32.0 °F 65% 30.42 in 10.0 mi NNE 18.4 mph 24.2 mph N/A   Scattered Clouds
11:02 AM 41.0 °F 32.5 °F 32.0 °F 70% 30.42 in 10.0 mi NNE 17.3 mph - N/A   Mostly Cloudy
11:53 AM 39.0 °F 29.6 °F 30.0 °F 70% 30.41 in 10.0 mi NNE 18.4 mph - N/A   Overcast
12:16 PM 39.2 °F 29.8 °F 30.2 °F 70% 30.41 in 10.0 mi NNE 18.4 mph - N/A   Overcast
12:40 PM 39.2 °F 29.6 °F 28.4 °F 65% 30.41 in 10.0 mi NNE 19.6 mph - N/A   Overcast
12:53 PM 39.0 °F 29.6 °F 28.9 °F 67% 30.41 in 10.0 mi NNE 18.4 mph - N/A   Overcast
1:53 PM 37.9 °F 28.9 °F 28.0 °F 68% 30.43 in 10.0 mi NNE 16.1 mph - N/A   Overcast
2:53 PM 37.0 °F 29.3 °F 27.0 °F 67% 30.44 in 10.0 mi NNE 11.5 mph - N/A   Overcast
3:53 PM 36.0 °F 28.0 °F 26.1 °F 67% 30.45 in 10.0 mi NNE 11.5 mph - N/A   Overcast
4:23 PM 35.6 °F 28.6 °F 26.6 °F 70% 30.46 in 10.0 mi NNE 9.2 mph - N/A   Overcast
4:53 PM 35.1 °F 27.4 °F 26.1 °F 70% 30.47 in 10.0 mi NNE 10.4 mph - N/A   Overcast
5:22 PM 35.6 °F 28.0 °F 26.6 °F 70% 30.47 in 10.0 mi NNE 10.4 mph - N/A   Overcast
5:53 PM 35.1 °F 27.4 °F 26.1 °F 70% 30.48 in 10.0 mi NNE 10.4 mph - N/A   Overcast
6:53 PM 35.1 °F 28.6 °F 26.1 °F 70% 30.50 in 10.0 mi NE 8.1 mph - N/A   Overcast
7:03 PM 35.6 °F 29.9 °F 26.6 °F 70% 30.50 in 10.0 mi NE 6.9 mph - N/A   Overcast
7:53 PM 35.1 °F 29.3 °F 27.0 °F 72% 30.51 in 10.0 mi NE 6.9 mph - N/A   Overcast
8:13 PM 35.6 °F 29.2 °F 26.6 °F 70% 30.51 in 10.0 mi NE 8.1 mph - N/A   Overcast
8:53 PM 35.1 °F 27.9 °F 26.1 °F 70% 30.52 in 10.0 mi NE 9.2 mph - N/A   Overcast
9:53 PM 36.0 °F 28.5 °F 26.1 °F 67% 30.51 in 10.0 mi ENE 10.4 mph - N/A   Overcast
10:53 PM 36.0 °F 30.3 °F 26.1 °F 67% 30.51 in 10.0 mi ENE 6.9 mph - N/A   Overcast
11:53 PM 36.0 °F 31.1 °F 25.0 °F 64% 30.52 in 10.0 mi ENE 5.8 mph - N/A   Overcast